CAPE
0 0 0 0 0 0 0 0 0 0 0 0 0 0 0 0 0 0 0 0 7 336 268 224 136 101 197 273 276 243 223 188 141 105 118 100 136 128 76 47 29 20 14
0 0 0 0 0 0 0 0 0 0 0 0 0 0 0 0 0 0 0 0 1 28 280 261 212 218 339 269 224 214 200 102 57 49 38 62 68 92 35 24 22 22 16
0 0 0 0 0 0 0 0 0 0 0 0 0 0 0 0 0 0 0 0 0 0 83 293 244 215 234 284 258 188 116 45 27 19 16 20 26 32 30 27 29 25 22
0 0 0 0 0 0 0 0 0 0 0 0 0 0 0 0 0 0 0 0 0 0 84 136 136 186 253 226 160 70 21 17 14 8 10 12 15 20 25 26 25 19 17
0 0 0 0 0 0 0 0 0 0 0 0 0 0 0 0 0 0 0 0 0 0 0 21 52 67 133 102 40 15 12 7 6 8 5 8 8 6 8 8 8 13 7
0 0 0 0 0 0 0 0 0 0 0 0 0 0 0 0 0 0 0 0 0 0 0 0 0 1 5 24 16 9 5 3 2 3 5 4 5 4 5 6 11 15 27
0 0 0 0 0 0 0 0 0 0 0 0 0 0 0 0 0 0 0 0 0 0 0 0 0 0 0 8 10 6 5 7 5 7 8 7 6 7 5 10 14 19 16
0 0 0 0 0 0 0 0 0 0 0 0 0 0 0 0 0 0 0 0 0 0 0 0 0 0 0 0 1 12 9 10 10 14 11 12 10 9 7 7 7 11 6
0 0 0 0 0 0 0 0 0 0 0 0 0 0 0 0 0 0 0 0 0 0 0 0 0 0 0 0 0 2 10 14 12 13 12 11 8 6 7 6 7 6 7
0 0 0 0 0 0 0 0 0 0 0 0 0 0 0 0 0 0 0 0 0 0 0 0 0 0 0 0 0 0 4 15 6 6 8 7 6 10 6 8 6 5 5
0 0 0 0 0 0 0 0 0 0 0 0 0 0 0 0 0 0 0 0 0 0 0 0 0 0 0 0 0 0 0 11 4 6 24 15 6 6 7 6 4 8 8
0 0 0 0 0 0 0 0 0 0 0 0 0 0 0 0 0 0 0 0 0 0 0 0 0 0 0 0 0 0 0 0 1 6 8 20 15 11 3 3 3 9 6
0 0 0 0 0 0 0 0 0 0 0 0 0 0 0 0 0 0 0 0 0 0 0 0 0 0 0 0 0 0 0 0 0 3 6 7 8 4 8 3 6 8 7
0 0 0 0 0 0 0 0 0 0 0 0 0 0 0 0 0 0 0 0 0 0 0 0 0 0 0 0 0 0 0 0 0 2 7 3 1 5 4 2 3 2 3
0 0 0 0 0 0 0 0 0 0 0 0 0 0 0 0 0 0 0 0 0 0 0 0 0 0 0 0 0 0 0 0 1 4 2 0 1 0 0 0 0 1 1
0 0 0 0 0 0 0 0 0 0 0 0 0 0 0 0 0 0 0 0 0 0 0 0 0 0 0 0 0 0 0 0 0 0 0 0 0 0 0 0 0 0 0
0 0 0 0 0 0 0 0 0 0 0 0 0 0 0 0 0 0 0 0 0 0 0 0 0 0 0 0 0 0 0 0 0 0 0 0 0 0 0 0 0 0 0
0 0 0 0 0 0 0 0 0 0 0 0 0 0 0 0 0 0 0 0 0 0 0 0 0 0 0 0 0 0 0 0 0 0 2 4 0 0 0 0 0 0 0
0 0 0 0 0 0 0 0 0 0 0 0 0 0 0 0 0 0 0 0 0 0 0 0 0 0 0 0 0 0 0 0 0 0 6 4 0 0 0 0 0 0 0
0 0 0 0 0 0 0 0 0 0 0 0 0 0 0 0 0 0 0 0 0 0 0 0 0 0 0 0 0 0 0 0 0 0 0 0 0 0 0 0 0 0 0
0 0 0 0 0 0 0 0 0 0 0 0 0 0 0 0 0 0 0 0 0 0 0 0 0 0 0 0 0 0 0 0 0 0 0 0 0 0 0 0 0 0 0
0 1 0 0 0 0 0 0 0 0 0 0 0 0 0 0 0 0 0 0 0 0 0 0 0 0 0 0 0 0 0 0 0 0 0 0 0 0 0 0 0 0 0
0 0 1 0 0 0 0 0 0 0 0 0 0 0 0 0 0 0 1 0 0 0 0 0 0 0 0 0 0 0 0 0 0 0 0 0 0 0 0 0 0 0 0
1 1 0 0 0 0 0 0 0 0 0 0 0 0 0 0 0 0 0 0 0 0 0 0 0 0 0 0 0 0 0 0 0 0 0 0 0 0 0 0 0 0 0
0 0 0 0 0 0 0 0 0 0 0 0 0 0 0 0 1 1 0 0 0 0 0 0 0 0 0 0 0 0 0 0 0 0 0 0 0 0 0 0 0 0 0
0 0 0 0 1 0 2 2 0 0 0 0 0 0 2 0 2 4 0 0 0 0 0 0 0 0 0 0 0 0 0 0 0 0 0 0 0 0 0 0 0 0 0
CIN
-0 -0 -0 -0 -0 -0 -0 -0 -0 -0 -0 -0 -0 -0 -0 -0 -0 -0 -0 -0 -157 -2 -2 -1 -26 -0 -41 -25 -30 -0 -0 -0 -0 -0 -0 -0 -0 -1 -0 -2 -8 -0 -0
-0 -0 -0 -0 -0 -0 -0 -0 -0 -0 -0 -0 -0 -0 -0 -0 -0 -0 -0 -0 -0 -84 -3 -0 -1 -10 -1 -15 -0 -0 -0 -0 -0 -1 -0 -0 -0 -4 -0 -0 -0 -0 -0
-0 -0 -0 -0 -0 -0 -0 -0 -0 -0 -0 -0 -0 -0 -0 -0 -0 -0 -0 -0 -0 -0 -16 -0 -5 -9 -0 -0 -0 -0 -0 -0 -2 -0 -0 -1 -0 -0 -0 -0 -0 -0 -0
-0 -0 -0 -0 -0 -0 -0 -0 -0 -0 -0 -0 -0 -0 -0 -0 -0 -0 -0 -0 -0 -0 -5 -19 -0 -0 -22 -0 -0 -1 -11 -0 -0 -0 -0 -0 -0 -0 -0 -0 -0 -0 -0
-0 -0 -0 -0 -0 -0 -0 -0 -0 -0 -0 -0 -0 -0 -0 -0 -0 -0 -0 -0 -0 -0 -0 -4 -0 -0 -0 -0 -2 -5 -0 -0 -0 -0 -0 -0 -0 -0 -0 -0 -0 -0 -0
-0 -0 -0 -0 -0 -0 -0 -0 -0 -0 -0 -0 -0 -0 -0 -0 -0 -0 -0 -0 -0 -0 -0 -0 -0 -0 -10 -22 -9 -0 -0 -0 -0 -0 -0 -0 -0 -0 -0 -0 -0 -0 -0
-0 -0 -0 -0 -0 -0 -0 -0 -0 -0 -0 -0 -0 -0 -0 -0 -0 -0 -0 -0 -0 -0 -0 -0 -0 -0 -0 -0 -0 -0 -0 -0 -0 -0 -0 -0 -0 -0 -0 -0 -0 -0 -0
-0 -0 -0 -0 -0 -0 -0 -0 -0 -0 -0 -0 -0 -0 -0 -0 -0 -0 -0 -0 -0 -0 -0 -0 -0 -0 -0 -0 -1 -0 -0 -0 -0 -0 -0 -0 -0 -0 -0 -0 -0 -0 -0
-0 -0 -0 -0 -0 -0 -0 -0 -0 -0 -0 -0 -0 -0 -0 -0 -0 -0 -0 -0 -0 -0 -0 -0 -0 -0 -0 -0 -0 -4 -3 -0 -0 -0 -0 -0 -0 -0 -0 -0 -0 -0 -0
-0 -0 -0 -0 -0 -0 -0 -0 -0 -0 -0 -0 -0 -0 -0 -0 -0 -0 -0 -0 -0 -0 -0 -0 -0 -0 -0 -0 -0 -0 -15 -3 -0 -0 -0 -0 -0 -0 -0 -0 -0 -0 -0
-0 -0 -0 -0 -0 -0 -0 -0 -0 -0 -0 -0 -0 -0 -0 -0 -0 -0 -0 -0 -0 -0 -0 -0 -0 -0 -0 -0 -0 -0 -0 -3 -0 -0 -0 -0 -0 -0 -0 -0 -0 -0 -0
-0 -0 -0 -0 -0 -0 -0 -0 -0 -0 -0 -0 -0 -0 -0 -0 -0 -0 -0 -0 -0 -0 -0 -0 -0 -0 -0 -0 -0 -0 -0 -0 -0 -0 -0 -0 -0 -0 -0 -0 -0 -0 -0
-0 -0 -0 -0 -0 -0 -0 -0 -0 -0 -0 -0 -0 -0 -0 -0 -0 -0 -0 -0 -0 -0 -0 -0 -0 -0 -0 -0 -0 -0 -0 -0 -0 -0 -0 -0 -1 -0 -0 -0 -0 -0 -0
-0 -0 -0 -0 -0 -0 -0 -0 -0 -0 -0 -0 -0 -0 -0 -0 -0 -0 -0 -0 -0 -0 -0 -0 -0 -0 -0 -0 -0 -0 -0 -0 -0 -0 -0 -2 -0 -0 -0 -0 -0 -0 -0
-0 -0 -0 -0 -0 -0 -0 -0 -0 -0 -0 -0 -0 -0 -0 -0 -0 -0 -0 -0 -0 -0 -0 -0 -0 -0 -0 -0 -0 -0 -0 -0 -1 -3 -4 -1 -0 -0 -0 -0 -0 -0 -0
-0 -0 -0 -0 -0 -0 -0 -0 -0 -0 -0 -0 -0 -0 -0 -0 -0 -0 -0 -0 -0 -0 -0 -0 -0 -0 -0 -0 -0 -0 -0 -0 -2 -0 -0 -0 -0 -0 -0 -0 -0 -0 -0
-0 -0 -0 -0 -0 -0 -0 -0 -0 -0 -0 -0 -0 -0 -0 -0 -0 -0 -0 -0 -0 -0 -0 -0 -0 -0 -0 -0 -0 -0 -0 -0 -0 -0 -0 -0 -0 -0 -0 -0 -0 -0 -0
-0 -0 -0 -0 -0 -0 -0 -0 -0 -0 -0 -0 -0 -0 -0 -0 -0 -0 -0 -0 -0 -0 -0 -0 -0 -0 -0 -0 -0 -0 -0 -0 -0 -0 -0 -0 -0 -0 -0 -0 -0 -0 -0
-0 -0 -0 -0 -0 -0 -0 -0 -0 -0 -0 -0 -0 -0 -0 -0 -0 -0 -0 -0 -0 -0 -0 -0 -0 -0 -0 -0 -0 -0 -0 -0 -0 -0 -0 -0 -0 -0 -0 -0 -0 -0 -0
-0 -0 -0 -0 -0 -0 -0 -0 -0 -0 -0 -0 -0 -0 -0 -0 -0 -0 -0 -0 -0 -0 -0 -0 -0 -0 -0 -0 -0 -0 -0 -0 -0 -0 -0 -0 -0 -0 -0 -0 -0 -0 -0
-0 -0 -0 -0 -0 -0 -0 -0 -0 -0 -0 -0 -0 -0 -0 -0 -0 -0 -0 -0 -0 -0 -0 -0 -0 -0 -0 -0 -0 -0 -0 -0 -0 -0 -0 -0 -0 -0 -0 -0 -0 -0 -0
-0 -0 -0 -0 -0 -0 -0 -0 -0 -0 -0 -0 -0 -0 -0 -0 -0 -0 -0 -0 -0 -0 -0 -0 -0 -0 -0 -0 -0 -0 -0 -0 -0 -0 -0 -0 -0 -0 -0 -0 -0 -0 -0
-0 -0 -0 -0 -0 -0 -0 -0 -0 -0 -0 -0 -0 -0 -0 -0 -0 -0 -0 -0 -0 -0 -0 -0 -0 -0 -0 -0 -0 -0 -0 -0 -0 -0 -0 -0 -0 -0 -0 -0 -0 -0 -0
-0 -0 -0 -0 -0 -0 -0 -0 -0 -0 -0 -0 -0 -0 -0 -0 -0 -0 -0 -0 -0 -0 -0 -0 -0 -0 -0 -0 -0 -0 -0 -0 -0 -0 -0 -0 -0 -0 -0 -0 -0 -0 -0
-0 -0 -0 -0 -0 -0 -0 -0 -0 -0 -0 -0 -0 -0 -0 -0 -0 -0 -0 -0 -0 -0 -0 -0 -0 -0 -0 -0 -0 -0 -0 -0 -0 -0 -0 -0 -0 -0 -0 -0 -0 -0 -0
-0 -0 -0 -0 -0 -0 -0 -0 -0 -0 -0 -0 -0 -0 -0 -0 -0 -0 -0 -0 -0 -0 -0 -0 -0 -0 -0 -0 -0 -0 -0 -0 -0 -0 -0 -0 -0 -0 -0 -0 -0 -0 -0
Wind_Speed
8 7 7 6 6 5 7 8 7 7 8 9 8 8 8 7 7 4 3 13 13 9 13 15 17 18 18 18 20 21 22 22 22 22 21 20 19 20 21 22 22 21 21
8 9 7 7 6 6 7 7 7 7 7 7 8 8 8 6 7 6 4 4 12 8 10 14 16 18 18 19 21 22 22 23 22 20 20 21 21 21 21 20 18 18 20
11 11 7 7 7 7 11 8 8 8 8 7 9 7 7 7 6 7 5 5 5 9 3 15 16 16 19 22 24 23 22 22 21 20 19 19 19 19 19 18 18 18 17
12 10 8 7 8 7 8 7 7 8 7 7 6 6 6 6 7 7 7 6 4 4 4 15 17 18 21 23 24 24 22 20 19 19 18 18 17 18 18 18 18 17 16
13 10 8 8 9 8 7 8 5 7 8 7 8 7 7 7 7 6 8 8 7 6 5 11 11 18 22 23 23 22 19 18 19 20 18 18 17 16 15 15 15 15 14
13 11 9 10 10 9 8 7 10 6 8 9 9 8 7 6 6 6 7 6 7 9 9 9 9 11 20 21 21 20 20 19 19 19 18 18 17 17 15 14 15 15 16
12 13 11 10 10 11 10 10 10 13 7 10 9 8 8 8 9 7 6 6 8 8 9 8 6 6 8 17 18 18 18 18 19 19 18 17 16 17 14 14 14 15 14
12 13 14 12 11 11 12 11 12 8 5 6 5 5 3 3 6 7 6 6 8 5 8 7 7 7 5 4 8 13 17 18 17 17 16 16 16 15 14 13 12 12 11
14 13 14 14 12 12 12 13 12 10 10 5 7 5 4 4 3 3 6 5 7 5 5 6 6 6 6 6 6 6 11 14 15 15 14 14 14 14 13 12 11 11 11
14 13 13 14 13 10 13 12 10 8 10 10 2 0 3 7 5 3 2 3 5 5 5 4 5 5 5 5 7 8 8 10 12 11 12 12 11 12 11 12 11 10 10
14 14 14 14 13 10 12 14 13 7 8 8 5 4 3 3 4 5 4 2 1 2 3 3 2 3 3 4 5 6 8 7 10 10 11 11 10 10 10 9 9 9 9
11 12 13 13 12 12 14 13 13 12 9 6 3 4 7 6 5 5 4 2 2 1 0 1 1 1 1 2 3 10 11 6 2 7 9 11 11 9 8 8 7 8 8
11 14 15 15 13 14 14 13 13 12 10 8 8 5 4 3 4 4 5 3 3 2 2 2 2 2 2 1 3 6 11 7 3 5 9 8 9 8 8 7 7 7 7
14 16 16 15 15 14 13 13 11 11 10 6 9 6 4 4 5 5 6 8 3 0 2 3 3 3 3 2 4 8 6 10 3 6 8 9 8 8 8 8 8 7 7
11 14 16 15 14 13 14 14 11 12 10 9 9 7 5 4 4 5 5 9 8 6 9 5 4 5 4 4 4 4 4 8 6 6 11 10 8 8 7 7 7 6 6
12 14 16 15 14 13 13 14 11 10 12 9 7 9 6 4 6 5 6 6 3 5 5 3 6 3 5 4 5 4 4 5 12 13 12 11 10 9 8 8 7 6 6
16 15 17 16 15 15 13 14 13 12 15 12 10 12 11 8 7 7 6 4 4 4 5 3 1 3 3 6 5 3 3 3 4 13 12 11 10 9 8 7 6 6 5
16 19 17 17 17 17 16 16 14 13 17 15 14 12 11 6 8 9 9 11 8 5 5 6 4 3 4 3 4 5 3 3 4 10 12 12 10 9 8 7 6 5 4
13 16 18 18 18 18 18 18 17 15 15 15 14 14 11 11 8 4 6 8 8 6 5 5 4 2 2 2 4 2 3 3 3 9 14 12 11 9 9 8 7 5 3
15 15 17 18 18 18 18 18 17 17 17 15 14 13 12 13 11 8 3 2 2 7 6 6 4 5 3 2 3 6 4 1 3 2 7 6 7 9 8 7 5 3 2
12 16 16 17 19 18 16 18 15 16 14 12 12 12 12 13 17 18 11 11 7 2 5 6 4 4 7 8 14 7 7 5 1 3 3 2 3 2 2 7 6 6 4
6 7 12 13 13 12 20 25 23 16 16 15 13 14 13 19 22 24 23 19 18 16 13 8 6 9 11 12 11 10 8 8 6 4 4 4 4 4 3 3 8 8 6
3 4 5 11 14 15 21 27 26 15 17 17 18 16 15 11 17 15 19 18 19 19 15 11 12 10 11 14 13 13 10 10 5 4 5 5 4 4 4 5 12 11 9
6 6 7 6 10 13 22 28 29 18 15 15 15 16 15 14 16 16 15 13 11 12 13 8 10 8 8 14 15 12 11 7 4 3 4 4 3 4 3 3 13 12 9
5 7 5 8 9 12 18 24 23 14 12 14 12 13 15 15 22 25 16 15 12 8 11 13 13 15 17 22 16 10 10 10 4 3 3 3 3 3 3 2 4 12 11
7 4 7 8 13 12 15 21 22 10 12 10 9 11 21 17 26 28 18 18 16 13 13 10 10 13 16 18 24 13 11 11 6 3 4 5 3 3 2 3 3 2 1
Wind_Direction
136 132 122 115 113 108 104 100 95 90 80 75 67 66 57 48 41 25 14 27 29 117 130 132 130 125 122 119 117 110 108 102 94 87 84 83 82 85 88 83 82 78 71
142 136 127 121 110 111 103 101 101 94 81 78 69 63 61 52 40 29 14 10 22 30 146 141 128 131 124 120 118 110 105 96 91 89 88 84 81 83 83 82 81 80 77
146 140 134 125 119 111 106 101 93 87 84 76 68 58 56 47 40 27 21 13 6 4 209 138 127 127 124 120 111 103 97 94 96 91 86 83 83 83 83 83 78 75 74
150 134 132 131 128 118 115 112 111 98 85 82 77 61 55 47 41 32 28 18 9 2 115 133 136 137 125 112 106 101 97 97 98 97 95 93 87 83 82 81 75 71 68
145 139 137 136 130 122 117 123 108 113 109 94 84 69 55 47 36 32 28 17 20 46 55 103 130 126 108 107 106 107 109 108 105 102 99 96 96 92 89 86 82 75 73
145 140 145 142 133 126 123 124 120 108 112 109 92 73 58 51 44 34 22 17 27 48 59 70 93 95 106 109 111 114 114 112 108 107 106 104 101 97 93 91 87 84 79
152 149 149 149 143 138 142 139 128 125 114 131 107 84 65 52 44 28 17 15 30 41 50 51 69 76 98 109 117 119 117 114 111 110 108 104 103 98 97 91 90 86 83
161 159 159 157 152 138 143 149 150 143 133 191 128 124 112 58 34 23 11 15 19 33 48 40 55 62 62 71 106 116 119 117 116 116 112 106 104 100 96 98 97 93 90
167 165 166 159 157 153 159 164 160 159 160 200 205 134 140 154 146 354 10 12 9 32 41 40 43 50 63 70 67 91 114 119 125 126 117 117 108 106 100 96 95 92 92
167 171 172 166 161 163 165 172 171 173 158 170 101 332 25 128 151 142 360 4 13 25 31 36 40 42 61 75 72 76 101 124 128 135 127 130 118 111 109 103 95 87 86
171 174 174 166 170 172 169 175 177 177 177 168 166 159 102 62 80 131 144 173 40 16 15 40 51 59 46 92 94 78 72 88 143 147 142 137 123 125 114 109 107 99 92
172 177 177 175 177 175 175 181 185 186 180 183 181 158 167 161 166 138 118 136 136 198 224 305 96 98 55 125 148 120 95 69 108 156 154 144 136 126 134 125 119 114 103
179 185 181 184 184 183 179 181 185 188 187 184 181 180 158 155 128 118 111 120 138 193 198 230 213 199 189 162 134 128 133 135 163 176 160 150 131 142 141 136 122 114 111
188 180 185 188 186 182 179 182 187 191 189 187 180 178 170 166 143 149 142 143 121 244 262 209 192 203 193 180 158 133 145 146 181 198 168 126 140 127 117 125 121 124 114
191 183 184 183 186 183 182 181 187 189 189 184 190 184 177 177 161 150 152 166 146 167 219 223 181 191 180 167 164 139 140 159 143 119 128 127 134 121 127 130 134 128 119
180 185 185 184 183 182 181 185 192 187 188 194 189 189 193 168 171 157 163 164 143 142 186 159 217 176 173 169 167 148 157 142 138 144 141 145 149 150 153 148 144 135 129
176 180 190 184 183 188 187 189 195 186 193 191 192 198 202 175 177 167 160 156 151 140 127 222 182 209 157 158 151 143 141 132 138 154 157 164 160 160 159 156 152 145 137
185 180 184 191 188 189 187 194 196 193 194 193 194 195 197 169 179 179 175 180 172 163 130 146 167 165 180 166 147 146 151 130 139 164 175 165 167 165 167 166 160 151 138
196 185 182 191 188 191 191 196 196 195 200 199 189 189 184 171 172 166 197 191 178 158 136 136 151 154 129 150 123 100 139 128 163 176 183 178 175 177 177 171 171 164 149
196 196 195 194 194 190 193 196 195 199 200 195 188 179 167 169 155 136 119 265 214 168 140 131 129 149 129 117 141 157 157 82 154 134 147 156 185 185 189 182 181 172 182
199 200 199 200 193 197 188 187 193 194 191 186 182 178 180 176 176 174 185 187 150 209 147 153 131 153 159 169 188 172 169 144 140 154 136 166 146 146 240 200 185 194 212
224 216 198 193 186 191 190 193 175 180 181 181 192 197 203 196 203 201 204 200 192 180 176 168 171 186 186 178 175 174 156 165 187 188 151 195 153 192 208 201 200 208 229
212 238 229 199 196 196 197 194 191 189 196 193 195 207 191 196 190 185 194 190 187 192 193 181 184 185 170 181 165 169 178 182 166 156 149 188 172 207 195 213 215 216 228
221 217 217 226 213 210 200 199 193 188 195 200 193 189 187 181 189 178 175 180 184 185 183 181 181 174 164 168 176 175 168 142 84 118 162 174 156 195 181 203 216 217 227
228 223 220 216 213 228 220 203 191 191 195 188 186 187 186 185 186 179 172 174 176 168 162 151 148 156 162 168 164 144 163 164 151 159 196 126 172 142 173 195 217 224 225
253 238 234 216 226 232 225 216 193 185 189 182 178 187 190 182 183 180 177 173 176 175 157 154 158 167 169 175 172 173 164 169 153 160 196 150 143 124 216 204 199 219 219